This is the latest recevied weather packets stored in our database for station/object HB9TJM-8. If no packets are shown the sender has not sent any weather packets the latest 10 day(s).
| Time | Temp. | Humidity | Pressure | Rain* | Wind** | Luminosity | Snow |
|---|---|---|---|---|---|---|---|
| 1777401646 | 11.11° C | 80% | 1016.7 hPa | 0 mm | - | 1 W/m² | - |
| 1777401339 | 11.67° C | 80% | 1016.5 hPa | 0 mm | - | 1 W/m² | - |
| 1777401031 | 11.67° C | 78% | 1016.8 hPa | 0 mm | - | 3 W/m² | - |
| 1777401031 | 11.67° C | 78% | 1016.8 hPa | 0 mm | - | 3 W/m² | - |
| 1777400723 | 11.67° C | 79% | 1017.3 hPa | 0 mm | - | 3 W/m² | - |
| 1777400415 | 11.11° C | 79% | 1016.6 hPa | 0.25 mm | - | 3 W/m² | - |
| 1777400107 | 11.67° C | 81% | 1016.4 hPa | 0.25 mm | - | 5 W/m² | - |
| 1777400107 | 11.67° C | 81% | 1016.4 hPa | 0.25 mm | - | 5 W/m² | - |
| 1777399801 | 11.67° C | 79% | 1016.6 hPa | 0.25 mm | - | 11 W/m² | - |
| 1777399493 | 11.67° C | 80% | 1017.1 hPa | 0.25 mm | - | 16 W/m² | - |
| 1777399492 | 11.67° C | 80% | 1017.1 hPa | 0.25 mm | - | 16 W/m² | - |
| 1777399184 | 11.67° C | 80% | 1016.8 hPa | 0.51 mm | - | 19 W/m² | - |
| 1777399184 | 11.67° C | 80% | 1016.8 hPa | 0.51 mm | - | 19 W/m² | - |
| 1777398877 | 11.67° C | 78% | 1016.6 hPa | 0.51 mm | - | 22 W/m² | - |
| 1777398569 | 11.67° C | 76% | 1016.7 hPa | 0.51 mm | - | 25 W/m² | - |
| 1777398261 | 11.67° C | 78% | 1016.4 hPa | 0.51 mm | - | 27 W/m² | - |
| 1777398261 | 11.67° C | 78% | 1016.4 hPa | 0.51 mm | - | 27 W/m² | - |
| 1777397954 | 11.67° C | 78% | 1016.5 hPa | 0.51 mm | - | 29 W/m² | - |
| 1777397646 | 11.67° C | 77% | 1016.8 hPa | 0.51 mm | - | 31 W/m² | - |
| 1777397646 | 11.67° C | 77% | 1016.8 hPa | 0.51 mm | - | 31 W/m² | - |
| 1777397338 | 11.67° C | 80% | 1016.8 hPa | 0.51 mm | - | 33 W/m² | - |
| 1777397338 | 11.67° C | 80% | 1016.8 hPa | 0.51 mm | - | 33 W/m² | - |
| 1777397031 | 11.67° C | 78% | 1016.6 hPa | 0.51 mm | - | 30 W/m² | - |
| 1777396724 | 12.22° C | 75% | 1016.5 hPa | 0.25 mm | - | 31 W/m² | - |
| 1777396724 | 12.22° C | 75% | 1016.5 hPa | 0.25 mm | - | 31 W/m² | - |
* Rain latest hour (hover to see other rain measurements)
** Current wind speed in m/s (hover to see current wind gust speed)